Temperature
14 14 14 14 14 14 14 13 14 14 14 14 14 14 14 14 14 14 14 14 14 14 14 14 14 14 14 14 14 14 14 15 14 14 14 14 14 14 14 14 15 15 15
14 14 13 13 13 13 13 13 13 13 13 13 13 13 13 13 13 14 14 13 13 13 14 14 14 14 14 14 14 14 14 14 14 14 14 14 14 14 14 14 14 14 14
14 13 13 13 12 12 12 12 12 12 12 12 12 12 13 13 13 13 13 13 13 13 13 13 13 13 13 13 13 13 13 14 14 14 13 13 13 13 13 13 13 14 14
14 13 13 12 12 12 12 11 11 11 11 11 12 12 12 12 12 12 13 13 12 12 12 13 13 13 13 13 13 13 13 13 13 13 13 13 13 13 13 13 13 13 13
13 13 13 12 12 12 12 11 11 11 11 11 11 11 12 12 12 12 12 12 12 12 12 12 12 12 12 13 13 13 13 13 13 13 13 12 12 12 12 12 12 12 13
13 13 13 12 12 12 12 11 11 11 11 11 11 11 12 12 12 12 12 12 12 12 12 12 12 12 12 12 12 12 13 13 12 12 12 12 12 12 12 12 12 12 12
13 13 13 13 12 12 12 11 11 11 11 11 11 12 12 12 12 11 11 11 11 12 12 12 12 11 12 12 12 12 12 12 12 12 12 11 11 12 12 12 12 12 12
14 13 13 13 12 12 12 11 11 11 11 11 12 12 12 11 11 11 11 11 11 11 11 11 11 11 11 11 11 11 11 11 11 12 11 11 11 11 11 12 12 12 12
14 13 13 13 12 12 12 12 11 11 11 11 12 12 12 12 11 11 11 11 11 11 11 11 11 11 11 11 11 11 11 11 11 11 11 11 11 11 11 11 11 11 11
14 13 13 13 13 12 12 12 12 11 11 11 12 12 12 12 11 11 11 11 11 11 11 11 11 11 11 11 11 11 11 11 11 11 11 11 11 11 11 10 10 10 10
14 13 13 13 13 12 12 12 12 11 11 11 11 11 12 12 11 11 11 11 11 11 11 10 10 10 10 10 10 10 10 11 11 11 11 11 11 11 10 10 10 10 10
14 13 13 13 12 12 12 12 12 11 11 11 11 11 11 11 11 11 11 11 11 11 11 10 10 10 10 10 10 10 10 10 10 10 10 10 10 10 10 10 10 10 10
13 13 13 13 12 12 12 12 11 11 11 11 11 11 11 11 11 11 11 11 11 11 10 10 10 10 10 10 10 10 10 10 9 9 9 9 9 9 10 10 9 10 10
13 13 13 12 12 12 12 12 11 11 11 11 11 11 11 11 11 11 11 10 10 10 10 10 10 10 10 10 10 10 9 9 9 9 9 9 9 9 9 9 9 9 9
13 12 12 12 12 12 12 12 11 11 11 12 12 11 11 11 11 11 10 10 10 10 10 10 10 10 10 10 10 10 9 9 9 8 8 8 8 8 9 8 8 9 9
12 12 12 12 12 12 12 11 11 11 12 12 12 11 11 11 11 10 10 10 10 10 10 10 10 10 10 10 11 10 9 9 8 8 8 8 8 8 8 8 8 8 8
12 12 12 12 12 12 12 11 11 11 11 11 12 11 11 11 11 10 10 10 10 10 10 10 11 11 11 11 11 10 9 9 8 8 8 8 8 8 8 8 8 7 8
12 12 12 13 13 12 12 12 11 11 11 11 11 11 11 11 10 10 10 10 10 10 10 11 11 11 11 11 10 10 9 9 8 8 8 7 7 8 8 7 8 7 7
12 12 12 13 13 13 13 12 12 11 11 10 10 10 10 10 10 10 10 10 10 10 11 11 11 11 11 10 10 10 9 9 9 8 8 7 7 7 7 7 7 7 7
11 12 12 13 13 13 13 13 12 12 11 11 10 10 10 10 9 10 10 10 10 10 11 11 11 11 11 11 10 10 10 9 9 8 8 7 7 7 7 7 7 7 7
10 12 12 13 13 13 13 13 13 12 12 11 10 10 10 10 9 9 10 10 10 11 11 11 11 11 11 10 10 10 10 9 9 8 8 7 7 7 6 6 6 6 6
10 11 12 12 13 13 13 13 13 12 12 11 10 10 10 10 9 9 10 10 10 11 11 11 11 11 11 10 10 10 10 9 9 9 8 7 7 6 6 6 6 6 6
10 11 12 12 12 12 12 13 13 12 12 11 11 10 10 10 10 10 10 11 11 11 11 11 11 11 11 11 11 10 10 10 9 9 8 7 7 7 6 6 5 5 5
10 10 11 12 12 12 12 13 13 12 12 12 11 11 11 10 11 11 12 12 11 11 11 11 11 11 11 11 11 10 10 10 9 9 8 7 7 6 6 6 5 5 5
9 10 11 11 12 12 12 13 13 12 12 12 12 11 11 11 11 12 12 12 12 12 12 11 11 11 11 11 11 10 10 10 9 9 8 7 6 6 5 5 5 5 5
9 10 11 11 12 12 13 13 13 13 12 12 12 12 12 11 11 12 12 12 12 12 12 12 11 11 11 11 11 11 10 10 10 9 8 7 7 6 5 5 5 5 4
Wind_Speed
4 5 6 6 6 5 5 6 6 5 4 3 1 2 3 3 4 3 2 3 3 2 1 3 4 4 4 4 4 3 3 2 2 2 3 4 4 5 5 4 4 3 4
2 3 3 4 4 4 5 6 7 7 6 6 4 2 1 1 2 2 2 4 4 5 5 6 7 6 6 5 4 4 3 3 2 3 4 4 4 5 5 4 4 4 2
1 1 2 2 3 5 6 6 7 7 6 6 5 3 1 1 2 4 6 6 7 8 8 9 9 8 7 5 5 6 5 5 3 3 3 3 3 4 5 5 6 5 4
2 1 1 1 3 4 5 6 6 5 5 5 4 2 2 4 5 7 8 9 9 10 10 10 9 8 7 7 7 7 6 5 4 4 4 5 5 6 6 5 4 4 4
3 3 3 3 3 4 4 3 3 3 3 2 1 2 4 6 7 7 8 10 9 9 9 9 9 9 10 8 8 7 8 7 7 6 7 6 6 7 7 6 5 4 2
5 5 5 6 5 4 3 2 0 0 0 0 2 5 8 8 11 12 10 8 8 8 7 6 8 9 8 9 10 11 11 9 8 7 7 6 7 6 6 7 5 5 3
6 6 7 7 7 6 5 4 3 3 3 3 5 8 8 8 13 13 11 8 9 8 9 8 9 11 10 6 3 6 9 12 10 7 6 5 5 6 7 8 7 5 2
6 7 7 9 9 8 6 5 4 3 3 5 6 8 7 8 12 13 10 9 7 8 8 8 9 9 11 9 5 6 6 6 6 5 3 3 4 5 6 7 8 4 1
7 6 7 10 10 10 8 6 5 4 5 6 6 7 7 6 10 12 10 5 6 8 9 9 9 8 13 14 9 8 7 5 2 2 4 6 7 8 6 6 9 8 6
7 6 7 9 11 11 9 7 5 5 5 6 7 7 7 6 7 10 10 2 4 6 7 8 12 9 11 13 8 7 7 7 8 8 4 4 4 3 5 4 6 7 7
7 7 7 9 11 11 10 7 7 6 6 6 8 7 7 7 6 8 10 5 3 3 6 7 5 8 10 10 7 5 6 7 7 5 4 5 5 6 7 6 5 4 4
6 7 8 9 11 12 11 9 8 7 7 7 7 7 6 6 6 7 9 9 7 5 7 7 5 6 7 7 6 8 12 10 6 6 6 6 5 5 6 6 5 4 2
7 8 8 10 9 11 12 12 10 8 9 9 9 8 7 6 5 7 6 8 10 7 6 8 7 5 2 2 2 7 8 6 6 6 6 6 5 6 6 6 7 6 6
8 8 8 9 10 11 10 11 11 11 10 10 10 9 8 7 6 5 4 4 6 6 6 6 5 3 2 4 3 1 2 3 4 4 5 5 5 5 5 5 5 6 5
9 9 10 10 10 11 11 9 9 8 9 8 7 7 9 8 7 7 6 4 4 4 6 4 4 4 4 4 3 3 4 4 4 4 5 5 5 5 5 5 5 5 5
10 10 10 10 10 10 10 8 5 4 9 12 11 10 7 12 16 15 14 12 10 7 3 5 6 6 4 3 2 4 5 4 3 3 4 5 5 5 5 4 5 5 6
11 11 11 11 11 12 11 11 9 7 9 10 14 16 16 18 17 15 13 10 7 5 3 5 4 4 3 4 3 4 5 5 1 2 4 4 5 4 4 4 4 5 5
14 13 11 10 11 12 12 12 12 12 10 6 7 15 20 18 16 14 12 7 4 3 6 6 4 4 3 3 4 4 4 5 3 2 3 3 4 4 4 5 4 4 5
14 12 12 10 9 10 11 12 12 13 12 12 10 7 11 14 12 10 9 5 7 8 8 7 5 5 5 5 4 3 3 4 3 1 2 2 3 3 4 4 4 5 4
13 15 14 11 10 10 10 11 11 11 11 12 13 12 11 10 8 7 7 8 8 8 8 6 5 5 5 5 5 4 3 4 4 2 3 2 3 3 4 5 4 5 5
12 14 14 12 10 10 10 10 10 11 12 11 13 16 18 14 12 12 11 11 10 10 7 6 6 6 5 5 5 5 5 3 3 3 3 2 2 3 3 4 4 5 5
11 12 13 13 10 9 9 10 10 11 12 13 11 14 21 15 13 13 12 12 12 9 6 6 6 7 7 7 6 5 5 5 4 4 3 2 1 0 2 3 4 4 4
11 10 10 12 10 10 11 10 10 11 12 13 12 14 16 14 13 13 13 13 11 8 6 7 6 6 7 5 5 5 5 4 5 5 4 2 1 1 0 1 3 4 4
11 10 10 12 12 11 11 10 10 11 12 13 12 14 16 14 13 12 12 11 10 9 8 7 8 8 8 6 6 7 7 7 8 6 6 3 1 1 0 0 2 3 4
9 9 9 11 12 12 11 11 11 11 13 12 13 13 16 16 14 11 9 9 10 10 10 9 7 8 10 10 8 7 10 13 12 10 9 5 4 3 1 2 2 2 3
8 8 8 10 11 11 11 11 11 12 12 12 12 13 14 16 15 12 9 7 8 8 9 9 9 10 10 10 12 14 18 18 16 13 8 4 4 4 4 2 3 3 3
Wind_Direction
335 344 347 351 352 358 9 9 8 10 16 19 88 157 170 177 176 179 191 172 170 169 149 110 91 70 40 21 12 9 13 19 355 1 25 25 25 357 347 329 310 259 234
336 345 358 2 3 10 27 29 28 25 26 21 15 38 103 153 166 174 155 124 120 105 85 73 62 64 51 38 9 17 6 9 18 25 30 24 29 4 353 346 356 340 311
290 330 8 19 30 35 41 40 37 28 21 21 10 8 18 94 112 105 98 94 88 79 72 67 62 56 42 21 27 21 13 23 36 66 64 42 35 13 8 14 28 9 11
236 225 160 78 72 66 57 44 34 25 16 10 357 355 63 84 88 94 93 87 80 74 70 66 61 54 38 11 40 25 22 20 40 63 62 45 29 12 13 4 19 20 28
245 229 186 151 130 108 89 62 23 5 4 348 9 83 87 83 89 99 100 95 90 90 88 85 77 74 62 51 56 35 30 34 38 47 47 41 23 12 4 347 360 353 43
236 227 191 170 162 150 143 146 120 4 255 182 81 77 75 74 68 76 90 88 85 80 80 98 98 70 65 69 74 64 55 52 40 44 39 32 22 4 348 340 342 346 351
230 229 197 183 178 173 173 176 184 198 186 134 96 91 87 69 67 68 80 87 77 69 58 49 63 50 35 23 61 82 67 60 57 61 48 22 19 354 344 340 337 339 352
229 227 203 188 183 177 179 179 183 182 154 121 107 106 102 80 60 53 60 92 84 76 66 64 67 45 23 10 36 58 62 51 42 60 45 1 2 337 339 340 340 347 48
231 219 202 189 181 178 179 177 174 164 149 135 122 118 107 81 52 43 29 96 96 82 70 55 64 52 23 22 33 34 32 20 344 316 283 289 298 309 322 351 358 360 359
225 212 195 183 180 180 177 171 170 164 164 153 136 131 126 109 64 44 20 11 118 116 109 86 66 59 39 31 30 31 19 349 336 329 296 287 313 346 358 20 12 358 356
212 199 189 177 178 178 171 170 170 172 172 160 142 141 138 127 97 58 38 30 10 130 129 108 80 60 49 31 27 33 357 325 311 323 1 18 18 21 15 5 3 356 357
204 196 185 176 181 177 171 174 177 174 164 155 152 150 139 134 112 93 71 54 23 52 87 104 107 81 55 27 23 7 358 355 354 7 17 14 14 16 350 341 340 335 317
205 191 184 181 187 169 173 174 176 178 176 171 171 169 159 143 115 109 92 67 58 74 90 110 126 117 47 316 338 357 9 19 7 11 13 6 357 352 344 354 356 349 350
207 188 181 179 177 173 177 178 181 183 188 184 180 175 159 150 153 159 158 139 120 127 132 130 146 166 269 298 299 299 85 51 10 11 7 355 348 352 1 9 357 344 355
204 188 184 183 179 176 179 182 190 188 189 183 180 167 161 166 156 163 179 164 165 136 143 156 185 196 215 220 190 119 84 55 24 23 17 3 355 356 1 5 3 354 359
204 194 189 185 179 176 174 162 73 126 153 160 157 152 152 144 138 124 114 109 103 114 156 203 209 211 195 165 126 126 110 77 18 19 34 12 353 352 360 2 23 7 353
208 197 193 188 180 179 176 169 154 96 86 114 139 141 140 146 147 140 131 121 109 114 203 243 219 173 160 149 126 102 106 112 57 32 51 18 350 350 4 1 36 13 347
211 201 197 193 181 180 177 176 172 168 161 141 117 136 143 149 149 143 135 134 166 197 230 241 191 153 148 116 104 94 99 106 76 26 66 33 354 350 5 355 22 27 338
216 206 199 196 184 182 178 177 179 178 179 170 149 140 144 141 135 137 148 189 206 203 219 225 185 169 163 150 137 140 143 128 122 275 90 55 360 353 11 351 357 7 339
225 215 198 196 188 184 183 183 182 181 181 175 170 165 160 162 170 175 193 210 227 225 215 200 175 166 154 152 151 170 178 149 155 178 97 60 25 13 358 351 4 356 354
229 215 203 198 191 185 186 189 185 181 182 180 176 172 172 182 189 190 195 206 220 234 213 184 166 161 162 166 184 193 186 175 158 138 110 86 46 11 337 346 5 4 359
236 217 201 200 195 188 184 187 186 183 183 181 177 169 171 187 196 195 198 204 216 227 201 180 184 181 186 189 191 188 188 187 176 158 147 141 142 331 343 354 11 355 342
241 225 199 196 197 187 187 189 188 184 183 183 178 171 180 196 201 200 198 201 207 210 196 180 200 200 190 182 178 185 195 181 159 143 142 154 204 206 220 5 347 330 353
240 223 204 195 197 197 195 191 186 185 186 188 184 176 184 198 208 207 200 196 195 195 192 188 198 212 201 177 178 192 191 169 152 148 150 147 183 289 344 293 301 332 350
240 222 208 200 197 200 194 192 191 187 187 191 190 185 186 195 208 215 203 193 190 191 193 195 197 207 208 196 190 181 160 155 155 152 151 168 193 195 209 289 293 304 312
237 224 216 204 197 201 194 189 193 190 189 193 195 193 190 192 198 207 207 200 199 197 198 200 204 205 201 204 202 174 164 162 160 160 165 176 192 191 190 220 277 288 296
Height
1467 1464 1461 1457 1454 1452 1450 1449 1447 1447 1447 1448 1449 1450 1452 1454 1456 1458 1459 1462 1463 1465 1466 1468 1469 1471 1472 1473 1474 1475 1475 1475 1475 1475 1475 1475 1474 1473 1472 1471 1470 1469 1468
1465 1462 1458 1456 1453 1450 1448 1447 1446 1445 1445 1446 1447 1448 1450 1452 1455 1457 1459 1461 1462 1464 1465 1467 1468 1470 1471 1472 1473 1474 1474 1474 1474 1474 1474 1473 1473 1472 1471 1469 1468 1466 1464
1463 1461 1458 1455 1452 1450 1448 1447 1446 1446 1445 1446 1446 1448 1449 1452 1455 1457 1458 1460 1462 1464 1465 1466 1468 1469 1471 1472 1473 1473 1473 1473 1473 1473 1474 1474 1473 1472 1471 1469 1466 1464 1462
1461 1459 1457 1455 1453 1451 1449 1448 1448 1447 1447 1446 1447 1449 1450 1453 1455 1457 1459 1461 1463 1464 1466 1468 1469 1470 1471 1472 1473 1473 1473 1473 1474 1474 1474 1474 1473 1472 1470 1468 1466 1463 1461
1459 1458 1456 1454 1453 1451 1450 1450 1450 1449 1449 1449 1450 1452 1453 1455 1458 1459 1461 1463 1465 1467 1468 1470 1471 1472 1472 1473 1473 1474 1474 1474 1474 1475 1475 1474 1473 1472 1470 1469 1467 1464 1461
1456 1455 1454 1453 1453 1452 1452 1452 1452 1452 1453 1454 1454 1455 1457 1458 1461 1463 1464 1465 1467 1469 1471 1472 1473 1474 1474 1475 1475 1475 1476 1476 1476 1476 1476 1475 1474 1473 1471 1469 1467 1464 1462
1453 1452 1452 1451 1451 1452 1452 1453 1454 1455 1456 1457 1458 1459 1460 1462 1464 1466 1467 1468 1469 1471 1472 1474 1475 1475 1476 1476 1477 1478 1478 1478 1478 1478 1477 1476 1475 1474 1471 1469 1467 1465 1463
1449 1449 1449 1449 1449 1450 1451 1453 1455 1456 1458 1459 1460 1461 1463 1465 1467 1468 1470 1471 1472 1474 1475 1475 1476 1477 1478 1479 1479 1480 1480 1480 1479 1479 1478 1477 1476 1475 1473 1470 1468 1466 1463
1445 1445 1445 1446 1447 1448 1450 1452 1455 1457 1459 1461 1462 1463 1465 1467 1469 1470 1472 1473 1474 1476 1476 1477 1478 1479 1480 1480 1480 1480 1480 1480 1480 1480 1479 1478 1477 1475 1473 1470 1468 1465 1464
1441 1441 1442 1442 1444 1446 1448 1451 1454 1457 1459 1461 1463 1465 1467 1469 1471 1472 1474 1475 1476 1477 1478 1478 1479 1480 1481 1481 1481 1481 1481 1481 1480 1480 1479 1479 1477 1476 1474 1472 1469 1467 1464
1436 1437 1438 1439 1441 1443 1446 1449 1453 1456 1459 1462 1464 1466 1468 1470 1472 1474 1475 1476 1477 1478 1478 1479 1480 1481 1481 1481 1481 1482 1482 1482 1481 1480 1480 1479 1477 1476 1474 1472 1470 1468 1466
1431 1432 1434 1435 1438 1440 1443 1447 1451 1455 1458 1461 1463 1466 1468 1470 1472 1474 1475 1477 1478 1479 1479 1479 1481 1481 1482 1482 1482 1483 1483 1482 1481 1480 1480 1479 1477 1476 1474 1473 1471 1469 1467
1425 1427 1429 1432 1434 1437 1440 1444 1448 1452 1455 1459 1461 1464 1467 1469 1471 1473 1475 1477 1478 1479 1479 1480 1481 1482 1483 1483 1484 1484 1484 1483 1482 1481 1480 1479 1478 1477 1475 1473 1471 1469 1467
1420 1422 1424 1427 1430 1434 1437 1441 1444 1448 1452 1456 1459 1462 1465 1467 1470 1472 1474 1475 1477 1478 1479 1480 1481 1482 1483 1484 1485 1485 1485 1484 1483 1482 1481 1480 1479 1477 1475 1473 1471 1470 1468
1414 1416 1419 1422 1426 1430 1433 1437 1442 1445 1449 1453 1456 1459 1462 1465 1468 1471 1472 1474 1476 1477 1479 1480 1482 1483 1484 1484 1485 1485 1485 1484 1484 1483 1482 1481 1479 1478 1476 1475 1473 1471 1469
1408 1411 1414 1417 1421 1425 1430 1434 1438 1443 1446 1450 1454 1457 1460 1463 1466 1469 1471 1473 1475 1477 1479 1480 1481 1482 1484 1485 1486 1486 1485 1484 1484 1484 1483 1482 1481 1479 1478 1476 1474 1473 1471
1403 1405 1408 1412 1416 1420 1425 1429 1433 1438 1443 1447 1450 1454 1457 1461 1464 1467 1469 1471 1473 1475 1477 1478 1480 1482 1483 1485 1485 1486 1485 1484 1485 1484 1484 1483 1482 1480 1479 1477 1475 1474 1472
1397 1400 1403 1407 1411 1415 1420 1425 1429 1433 1437 1442 1446 1450 1454 1458 1461 1464 1466 1469 1471 1473 1475 1476 1479 1481 1482 1484 1484 1485 1485 1485 1484 1484 1484 1483 1482 1481 1480 1478 1477 1475 1473
1391 1394 1398 1402 1406 1410 1415 1420 1424 1429 1433 1438 1441 1446 1450 1454 1457 1460 1463 1466 1468 1470 1472 1474 1477 1479 1480 1482 1483 1483 1484 1484 1484 1484 1483 1483 1482 1481 1480 1479 1477 1476 1474
1384 1388 1392 1397 1401 1405 1410 1415 1419 1424 1428 1433 1436 1440 1444 1449 1452 1455 1459 1462 1465 1468 1470 1472 1474 1476 1478 1479 1480 1482 1483 1483 1483 1483 1483 1482 1482 1481 1480 1478 1477 1476 1474
1376 1382 1387 1391 1396 1400 1405 1410 1414 1419 1423 1428 1431 1434 1438 1443 1447 1451 1454 1458 1461 1464 1467 1469 1471 1473 1475 1477 1478 1479 1480 1481 1481 1481 1481 1480 1480 1479 1479 1478 1476 1475 1474
1369 1375 1381 1385 1390 1395 1400 1405 1410 1414 1418 1423 1427 1431 1435 1440 1444 1448 1451 1454 1457 1460 1463 1466 1468 1470 1472 1473 1475 1476 1477 1478 1478 1478 1478 1478 1478 1477 1477 1476 1475 1474 1473
1363 1368 1374 1380 1386 1390 1395 1400 1405 1409 1414 1418 1423 1426 1431 1435 1440 1444 1447 1450 1454 1457 1459 1462 1464 1466 1468 1470 1471 1473 1474 1474 1475 1475 1475 1475 1475 1475 1475 1474 1473 1473 1472
1357 1362 1368 1374 1380 1385 1390 1395 1400 1404 1409 1414 1418 1422 1426 1430 1436 1439 1443 1446 1449 1452 1455 1458 1460 1463 1464 1466 1467 1469 1470 1470 1471 1471 1471 1472 1472 1472 1472 1471 1471 1471 1470
1352 1357 1363 1369 1375 1380 1385 1390 1395 1399 1404 1409 1413 1417 1421 1426 1430 1434 1438 1441 1444 1447 1450 1453 1456 1458 1460 1462 1463 1464 1465 1466 1467 1467 1467 1467 1468 1468 1468 1469 1469 1468 1468
1348 1353 1358 1364 1370 1375 1380 1385 1390 1395 1399 1404 1408 1412 1416 1421 1425 1429 1433 1436 1439 1442 1445 1448 1450 1453 1455 1457 1458 1459 1460 1461 1462 1463 1463 1463 1464 1465 1465 1465 1466 1466 1465